Flag for Turkey Weather past 2 weeks in Bursa, Turkey

Now
45 °F

Fog.


Feels Like: 45 °F
Forecast: 35 / 53 °F
Wind: 1 mph from Northeast

Location: Bursa

Current Time: Mar 3, 2015 at 3:47:55 AM

Latest Report: Mar 3, 2015 at 2:00 AM


Visibility: 4 mi

Pressure: 30.01 "Hg

Humidity: 95%

Dew point: 43 °F

Location of BursaLocation

Historic Weather in Bursa — Graph

°F

Bursa temperature yesterday

Maximum temperature yesterday: 60 °F (at 3:00 PM)
Minimum temperature yesterday: 46 °F (at 7:00 AM)
Average temperature yesterday: 51 °F

Past Weeks' High & Low Weather Summary

 TemperatureHumidityPressure
High64 °F (Feb 27, 4:00 PM)100% (Feb 19, 7:00 AM)30.45 "Hg (Feb 19, 7:00 AM)
Low26 °F (Feb 18, 8:00 AM)41% (Feb 22, 2:00 PM)29.75 "Hg (Feb 24, 4:00 PM)
Average44 °F78%30.11 "Hg
* Reported Feb 16 2:00 AM — Mar 3 2:00 AM, Bursa, Weather by CustomWeather, © 2015

Note: Actual official high and low records may vary slightly from our data, if they occured in-between our weather recording intervals... More about our weather records

Advertising

Bursa weather history for previous 24 hours

 ConditionsComfort  
Time TempWeatherWind HumidityBarometerVisibility
2:00 AM
Tue, Mar 3
45 °FFog.1 mph95%30.01 "Hg4 mi
11:00 PM
Mon, Mar 2
46 °FFog.2 mph93%30.04 "Hg4 mi
8:00 PM48 °FClear.No wind88%30.02 "Hg7 mi
7:00 PM51 °FClear.1 mph84%30.03 "Hg7 mi
6:00 PM54 °FPassing clouds.3 mph76%30.03 "Hg7 mi
5:00 PM58 °FScattered clouds.5 mph67%30.02 "Hg8 mi
4:00 PM60 °FPassing clouds.3 mph63%30.02 "Hg7 mi
3:00 PM60 °FScattered clouds.2 mph57%30.04 "Hg6 mi
2:00 PM59 °FScattered clouds.2 mph65%30.04 "Hg5 mi
1:00 PM56 °FScattered clouds.3 mph66%30.07 "Hg4 mi
12:00 PM54 °FFog.3 mph72%30.09 "Hg4 mi
11:00 AM53 °FFog.3 mph73%30.11 "Hg4 mi
10:00 AM51 °FFog.3 mph80%30.11 "Hg4 mi
9:00 AM49 °FFog.2 mph80%30.12 "Hg4 mi
8:00 AM47 °FFog.1 mph87%30.11 "Hg3 mi
7:00 AM46 °FFog.1 mph91%30.10 "Hg4 mi
6:00 AM46 °FPassing clouds.1 mph88%30.09 "Hg6 mi
5:00 AM46 °FPassing clouds.1 mph88%30.09 "Hg6 mi
4:00 AM46 °FPassing clouds.2 mph87%30.09 "Hg6 mi
3:00 AM46 °FPassing clouds.2 mph90%30.09 "Hg6 mi
Weather by CustomWeather, © 2015

See weather overviewHow to use our weather pages